Ely, NV

5:25 AM PST on December 16, 2017 (GMT -0800)
Ely

Weather History for KELY - November, 2011

Change the Weather History Date:

Monday, November 21, 2011

  Actual Average Record
Temperature  
Mean Temperature 35 °F 31 °F  
Max Temperature 47 °F 46 °F 65 °F (2002)
Min Temperature 22 °F 17 °F -4 °F (1941)
Degree Days  
Heating Degree Days 30 34  
Month to date heating degree days 688 618  
Since 1 July heating degree days 1370 1546  
Cooling Degree Days 0 0  
Month to date cooling degree days 0 0  
Year to date cooling degree days 259 218  
Moisture  
Dew Point 26 °F    
Average Humidity 65    
Maximum Humidity 89    
Minimum Humidity 41    
Precipitation  
Precipitation T in 0.02 in 0.76 in (2013)
Month to date precipitation 0.36 0.53  
Year to date precipitation 11.78 9.00  
Snow  
Snow T in 0.20 in 9.90 in (2013)
Month to date snowfall 6.0 4.1  
Since 1 July snowfall 8.6 7.5  
Since 1 September snowfall 8.6 7.5  
Snow Depth T in    
Sea Level Pressure  
Sea Level Pressure 30.06 in    
Wind  
Wind Speed 7 mph (SSW)    
Max Wind Speed 14 mph    
Max Gust Speed 20 mph    
Visibility 10 miles    
Events Snow    
T = Trace of Precipitation, MM = Missing Value Source: NWS Daily Summary

Daily Weather History Graph

Daily Weather History Graph

Search for Another Location

Airport or City:

Trip Planner

Search our weather history database for the weather conditions in past years. The results will help you decide how hot, cold, wet, or windy it might be!

Date:

Astronomy

Nov. 21, 2011 Rise Set
Actual Time 6:29 AM PST 4:20 PM PST
Civil Twilight 6:00 AM PST 4:49 PM PST
Nautical Twilight 5:27 AM PST 5:22 PM PST
Astronomical Twilight 4:55 AM PST 5:54 PM PST
Moon 2:13 AM PST (11/21) 1:44 PM PST (11/21)
Length of Visible Light 10h 49m
Length of Day
9h 51m
Waning Crescent, 16% of the Moon is Illuminated
Nov 21
Waning Crescent
Nov 24
New
Dec 2
First Quarter
Dec 10
Full
Dec 17
Last Quarter

Hourly Weather History & Observations

Time (PST) Temp. Windchill Dew Point Humidity Pressure Visibility Wind Dir Wind Speed Gust Speed Precip Events Conditions
12:27 AM 35.6 °F 29.2 °F 30.2 °F 81% 29.98 in 6.0 mi South 8.1 mph - 0.00 in Snow Light Snow
12:53 AM 34.0 °F 28.8 °F 30.9 °F 89% 29.92 in 10.0 mi SSW 5.8 mph - 0.00 in   Overcast
1:53 AM 35.1 °F 31.0 °F 30.0 °F 82% 29.91 in 10.0 mi SSW 4.6 mph - N/A   Overcast
2:53 AM 35.1 °F 26.9 °F 30.0 °F 82% 29.92 in 10.0 mi SSW 11.5 mph - N/A   Overcast
3:53 AM 34.0 °F 27.2 °F 30.0 °F 85% 29.94 in 10.0 mi SSW 8.1 mph - N/A   Overcast
4:53 AM 34.0 °F 28.8 °F 30.9 °F 89% 29.97 in 10.0 mi South 5.8 mph - N/A   Overcast
5:24 AM 33.8 °F 26.4 °F 30.2 °F 87% 30.01 in 10.0 mi South 9.2 mph - N/A   Overcast
5:53 AM 33.1 °F 26.1 °F 30.0 °F 89% 30.00 in 10.0 mi SSW 8.1 mph - N/A   Overcast
6:53 AM 34.0 °F 28.8 °F 30.0 °F 85% 30.03 in 10.0 mi East 5.8 mph - N/A   Overcast
7:53 AM 35.1 °F - 30.9 °F 85% 30.05 in 10.0 mi Calm Calm - N/A   Overcast
8:53 AM 37.0 °F - 32.0 °F 82% 30.06 in 10.0 mi Calm Calm - 0.00 in   Overcast
9:53 AM 41.0 °F 37.1 °F 30.9 °F 67% 30.03 in 10.0 mi SE 5.8 mph - 0.00 in   Mostly Cloudy
10:53 AM 43.0 °F 40.3 °F 28.0 °F 56% 30.04 in 10.0 mi West 4.6 mph - N/A   Mostly Cloudy
11:53 AM 43.0 °F 37.7 °F 26.1 °F 51% 30.01 in 10.0 mi West 9.2 mph - N/A   Mostly Cloudy
12:53 PM 45.0 °F 40.1 °F 26.1 °F 48% 30.01 in 10.0 mi SW 9.2 mph - N/A   Scattered Clouds
1:53 PM 46.0 °F 41.9 °F 24.1 °F 42% 30.02 in 10.0 mi SSW 8.1 mph - N/A   Partly Cloudy
2:53 PM 45.0 °F 40.1 °F 23.0 °F 42% 30.03 in 10.0 mi SW 9.2 mph - N/A   Clear
3:53 PM 42.1 °F 36.1 °F 21.9 °F 45% 30.06 in 10.0 mi SSW 10.4 mph - N/A   Clear
4:53 PM 32.0 °F 24.8 °F 21.0 °F 64% 30.13 in 10.0 mi SSW 8.1 mph - N/A   Clear
5:53 PM 30.9 °F 23.5 °F 19.9 °F 64% 30.16 in 10.0 mi SSE 8.1 mph - N/A   Clear
6:53 PM 30.9 °F 24.3 °F 21.9 °F 69% 30.20 in 10.0 mi South 6.9 mph - N/A   Clear
7:53 PM 27.0 °F 18.7 °F 19.9 °F 75% 30.22 in 10.0 mi South 8.1 mph - N/A   Clear
8:53 PM 26.1 °F 16.8 °F 19.9 °F 78% 30.23 in 10.0 mi South 9.2 mph - N/A   Clear
9:53 PM 28.0 °F 19.3 °F 21.0 °F 75% 30.22 in 10.0 mi South 9.2 mph - N/A   Clear
10:53 PM 23.0 °F 13.1 °F 18.0 °F 81% 30.24 in 10.0 mi South 9.2 mph - N/A   Clear
11:53 PM 24.1 °F 15.2 °F 19.0 °F 81% 30.24 in 10.0 mi South 8.1 mph - N/A   Clear